Retour au catalogue

KUIPER-00035

ActifCommunicationsLEO
NORAD 63748·PAYLOAD·🇺🇸 United States

Lancé Apr 28, 2025 depuis Cape Canaveral Space Force Station

Loading…

Prochains Passages (prochaines 24 heures)

TLE

FraisSource: CelesTrak SupGP

Époque: Sep 14, 2026, 19:43 UTC

1 63748C 25088AA  26257.82181713  .00002973  00000+0  38917-3 0  2572
2 63748  51.9010 356.7455 0000477  92.1245 243.7228 14.79924797    10

Suivez KUIPER-00035 en temps réel avec AllMySat

Download on the App Store